This is the latest recevied weather packets stored in our database for station/object NG7N. If no packets are shown the sender has not sent any weather packets the latest 10 day(s).
| Time | Temp. | Humidity | Pressure | Rain* | Wind** | Luminosity | Snow |
|---|---|---|---|---|---|---|---|
| 1777716738 | 11.11° C | 86% | 1016.7 hPa | 0 mm | - | - | - |
| 1777716563 | 11.11° C | 86% | 1016.7 hPa | 0 mm | - | - | - |
| 1777715364 | 10.56° C | 86% | 1016.7 hPa | 0 mm | - | - | - |
| 1777714763 | 10.56° C | 86% | 1016.8 hPa | 0 mm | - | - | - |
| 1777713564 | 11.11° C | 84% | 1017.1 hPa | 0 mm | - | - | - |
| 1777712964 | 11.67° C | 81% | 1016.9 hPa | 0 mm | - | - | - |
| 1777712363 | 11.67° C | 79% | 1016.9 hPa | 0 mm | - | - | - |
| 1777711164 | 12.22° C | 77% | 1016.7 hPa | 0 mm | - | - | - |
| 1777710564 | 12.22° C | 76% | 1016.7 hPa | 0 mm | - | - | - |
| 1777709964 | 12.78° C | 74% | 1016.7 hPa | 0 mm | - | - | - |
| 1777708764 | 12.78° C | 73% | 1016.8 hPa | 0 mm | - | - | - |
| 1777708164 | 12.78° C | 73% | 1016.8 hPa | 0 mm | - | - | - |
| 1777707864 | 12.78° C | 73% | 1016.7 hPa | 0 mm | - | - | - |
| 1777706364 | 13.33° C | 72% | 1016.5 hPa | 0 mm | - | - | - |
| 1777705765 | 13.33° C | 71% | 1016.7 hPa | 0 mm | - | - | - |
| 1777704563 | 13.33° C | 70% | 1016.6 hPa | 0 mm | - | - | - |
| 1777703964 | 13.89° C | 69% | 1016.4 hPa | 0 mm | - | - | - |
| 1777703363 | 13.89° C | 69% | 1016.4 hPa | 0 mm | - | - | - |
| 1777701563 | 14.44° C | 69% | 1016.3 hPa | 0 mm | - | - | - |
| 1777700363 | 14.44° C | 70% | 1016.2 hPa | 0 mm | - | - | - |
| 1777699163 | 15° C | 66% | 1016.1 hPa | 0 mm | - | - | - |
| 1777698563 | 15.56° C | 66% | 1016 hPa | 0 mm | - | - | - |
| 1777696763 | 15.56° C | 66% | 1015.9 hPa | 0 mm | - | - | - |
| 1777696163 | 15.56° C | 65% | 1015.6 hPa | 0 mm | - | - | - |
| 1777694363 | 16.11° C | 66% | 1015.5 hPa | 0 mm | - | - | - |
* Rain latest hour (hover to see other rain measurements)
** Current wind speed in m/s (hover to see current wind gust speed)